Flock 4g-17

operational
NORAD ID: 62681 Int'l Des: 2025-009 Owner: PLAN Country: US Constellation: planet
LEOCIRCULARRETROGRADESSO

About Flock 4g-17

Description loading...

Live Position

Loading 3D Globe...

Upcoming Passes

Altitude History

Altitude vs Time

uPlot chart will show altitude changes over time

Two-Line Element Set

1 62681U 25009CA 25311.18069080 .00013718 00000-0 56955-3 0 9996
2 62681 97.4143 29.4224 0005717 51.7096 308.4655 15.23938413102670
Epoch: Nov 7, 2025 • Age: 11 hours

Current Status

Altitude 518.1 km
Velocity 7.60 km/s
Sub-Earth Point -58.90°S, 128.58°E
Launch Date Jan 14, 2025
Age 0.8 years
Type earth observation

Technical Details

Classification Payload
Mass 5.70 kg
Dry Mass 5.70 kg
Total Mass 5.70 kg
Length 0.30 m
Diameter 0.10 m
Span 0.30 m
Shape Box+2 pan
Manufacturer PLAN
Bus Type Cubesat 3U
Phase Status In Orbit
Owner/State PLAN/US

Large Constellations

Loading constellations...